time_stamp(utc),avg(mph),gust(mph),direction(deg),12m_air_temp(f),sonic_u(cm/s),sonic_v(cm/s),sonic_w(cm/s),pressure,2m_air_temp(f),pyranometer(W/m^2)
"2019-07-22 00:00:00+00",10.4,11.4,,90.4,-433,-126,15,1009.81,90.9,0
"2019-07-22 00:05:00+00",10.0,11.0,,90.2,-415,-109,13,1010,90.3,0
"2019-07-22 00:10:00+00",9.8,10.8,,89.9,-402,-124,14,1009.92,89.8,0
"2019-07-22 00:15:00+00",9.5,10.5,,89.9,-410,-147,11,1009.99,89.4,0
"2019-07-22 00:20:00+00",8.8,9.8,,89.8,-366,-121,17,1009.93,89,0
"2019-07-22 00:25:00+00",8.6,9.6,,89.4,-352,-114,12,1010.01,88.6,0
"2019-07-22 00:30:00+00",7.7,8.7,,89.1,-343,-134,9,1009.92,88.3,0
"2019-07-22 00:35:00+00",8.2,9.2,,89,-337,-179,11,1009.96,88,0
"2019-07-22 00:40:00+00",7.9,8.9,,88.8,-298,-184,9,1009.79,87.7,0
"2019-07-22 00:45:00+00",8.5,9.5,,88.7,-321,-201,11,1009.74,87.5,0
"2019-07-22 00:50:00+00",7.7,8.7,,88.4,-290,-181,11,1009.92,87.3,0
"2019-07-22 00:55:00+00",8.2,9.2,,88.1,-287,-209,6,1009.95,87.1,0
"2019-07-22 01:00:00+00",9.2,10.2,,88.2,-303,-253,3,1009.97,86.9,0
"2019-07-22 01:05:00+00",9.4,10.4,,88.4,-344,-231,12,1010,86.7,0
"2019-07-22 01:10:00+00",9.8,10.8,,88.4,-374,-235,5,1010.09,86.6,0
"2019-07-22 01:15:00+00",9.6,10.6,,88,-359,-227,14,1010.04,86.4,0
"2019-07-22 01:20:00+00",9.4,10.4,,87.7,-402,-197,8,1010.17,86.4,0
"2019-07-22 01:25:00+00",9.4,10.4,,87.6,-413,-188,7,1010.16,86.2,0
"2019-07-22 01:30:00+00",9.5,10.5,,87.6,-405,-200,11,1010.14,86.1,0
"2019-07-22 01:35:00+00",9.6,10.6,,87.4,-398,-211,10,1010.1,86,0
"2019-07-22 01:40:00+00",9.3,11.3,,87.2,-374,-210,10,1010.09,85.9,0
"2019-07-22 01:45:00+00",9.0,10.0,,86.9,-394,-189,11,1010.16,85.7,0
"2019-07-22 01:50:00+00",9.2,10.2,,86.8,-397,-157,9,1010.21,85.5,0
"2019-07-22 01:55:00+00",9.3,10.3,,86.7,-406,-154,13,1010.21,85.3,0
"2019-07-22 02:00:00+00",10.5,11.5,,86.6,-455,-168,7,1010.25,85.1,0
"2019-07-22 02:05:00+00",10.8,11.8,,86.9,-475,-185,17,1010.17,84.9,0
"2019-07-22 02:10:00+00",9.9,10.9,,86.8,-435,-194,17,1010.2,84.8,0
"2019-07-22 02:15:00+00",9.9,10.9,,86.5,-433,-203,13,1010.17,84.8,0
"2019-07-22 02:20:00+00",10.1,11.1,,86.3,-436,-164,10,1010.14,84.7,0
"2019-07-22 02:25:00+00",10.1,12.1,,86.1,-433,-152,9,1010.08,84.6,0
"2019-07-22 02:30:00+00",9.8,10.8,,85.9,-421,-148,9,1010.06,84.4,0
"2019-07-22 02:35:00+00",9.9,10.9,,85.6,-416,-136,10,1010.08,84.2,0
"2019-07-22 02:40:00+00",10.3,11.3,,85.3,-434,-79,11,1010.04,84.1,0
"2019-07-22 02:45:00+00",10.7,12.7,,85.2,-448,-86,6,1009.87,83.8,0
"2019-07-22 02:50:00+00",10.9,11.9,,85.6,-476,-50,10,1009.94,83.6,0
"2019-07-22 02:55:00+00",12.3,13.3,,86.5,-546,-20,13,1009.96,83.8,0
"2019-07-22 03:00:00+00",11.7,12.7,,86.8,-524,19,17,1009.99,84.2,0
"2019-07-22 03:05:00+00",11.2,12.2,,86.4,-493,22,19,1010.07,84.4,0
"2019-07-22 03:10:00+00",11.5,13.5,,86.2,-515,3,21,1010,84.4,0
"2019-07-22 03:15:00+00",11.3,12.3,,86.1,-510,12,18,1010.01,84.4,0
"2019-07-22 03:20:00+00",10.8,11.8,,85.7,-477,55,18,1010.1,84.2,0
"2019-07-22 03:25:00+00",9.6,10.6,,85.2,-419,64,17,1010,83.9,0
"2019-07-22 03:30:00+00",8.8,9.8,,84.9,-395,50,13,1009.91,83.5,0
"2019-07-22 03:35:00+00",7.7,8.7,,84.5,-340,51,11,1009.8,83,0
"2019-07-22 03:40:00+00",6.9,7.9,,84.2,-293,54,8,1009.81,82.6,0
"2019-07-22 03:45:00+00",5.6,6.6,,84,-248,42,4,1009.74,82.3,0
"2019-07-22 03:50:00+00",4.7,4.7,,83.6,-200,-23,6,1009.84,82.1,0
"2019-07-22 03:55:00+00",2.8,3.8,,82.8,-42,-110,-1,1009.79,81.6,0
"2019-07-22 04:00:00+00",7.3,8.3,,82.6,-235,-221,4,1009.89,81.2,0
"2019-07-22 04:05:00+00",4.9,5.9,,83.5,-131,-172,-1,1009.78,81.1,0
"2019-07-22 04:10:00+00",6.0,7.0,,83.5,-235,-131,-3,1009.99,81.1,0
"2019-07-22 04:15:00+00",5.8,6.8,,83.7,-218,-134,9,1010.16,81.2,0
"2019-07-22 04:20:00+00",5.7,6.7,,83.5,-240,-87,14,1010.33,81.3,0
"2019-07-22 04:25:00+00",7.4,8.4,,83.5,-321,-34,11,1010.41,81.3,0
"2019-07-22 04:30:00+00",7.3,8.3,,84.4,-312,42,2,1010.45,81.4,0
"2019-07-22 04:35:00+00",8.2,9.2,,84.6,-292,221,18,1010.68,81.5,0
"2019-07-22 04:40:00+00",10.1,12.1,,83.8,-299,352,23,1010.74,81.8,0
"2019-07-22 04:45:00+00",8.1,9.1,,83.6,-241,264,28,1010.74,81.9,0
"2019-07-22 04:50:00+00",7.8,9.8,,83.4,-235,259,18,1010.71,82,0
"2019-07-22 04:55:00+00",6.1,6.1,,83.3,-219,168,18,1010.77,82,0
"2019-07-22 05:00:00+00",8.7,9.7,,83,-246,295,33,1010.88,81.9,0
"2019-07-22 05:05:00+00",7.7,9.7,,83.5,2,325,5,1010.88,81.8,0
"2019-07-22 05:10:00+00",6.4,8.4,,83.7,83,256,-1,1010.78,81.9,0
"2019-07-22 05:15:00+00",6.6,7.6,,83.4,188,192,6,1010.83,82,0
"2019-07-22 05:20:00+00",8.4,9.4,,83.1,166,314,5,1010.95,81.6,0
"2019-07-22 05:25:00+00",6.8,7.8,,82.5,76,269,2,1011,81.4,0
"2019-07-22 05:30:00+00",7.4,8.4,,82.2,151,283,2,1010.98,81.2,0
"2019-07-22 05:35:00+00",9.0,10.0,,82.6,246,259,2,1010.97,81,0
"2019-07-22 05:40:00+00",6.9,7.9,,82.5,261,147,15,1011.03,80.8,0
"2019-07-22 05:45:00+00",8.4,8.4,,82.3,320,181,21,1011,80.5,0
"2019-07-22 05:50:00+00",6.8,7.8,,81.6,297,62,7,1010.95,80.2,0
"2019-07-22 05:55:00+00",6.9,7.9,,80.9,297,65,4,1010.98,79.9,0
"2019-07-22 06:00:00+00",5.6,6.6,,80.4,234,81,1,1011.08,79.5,0
"2019-07-22 06:05:00+00",4.4,4.4,,80.5,179,73,6,1011.17,79.2,0
"2019-07-22 06:10:00+00",3.8,3.8,,80.7,167,-15,10,1011.14,79,0
"2019-07-22 06:15:00+00",2.9,3.9,,80.7,105,57,-1,1011.38,78.9,0
"2019-07-22 06:20:00+00",3.2,4.2,,80.6,127,-51,0,1011.27,78.8,0
"2019-07-22 06:25:00+00",3.1,3.1,,80.5,116,-67,4,1011.41,78.8,0
"2019-07-22 06:30:00+00",1.7,2.7,,80.3,82,-49,-10,1011.25,78.7,0
"2019-07-22 06:35:00+00",1.4,2.4,,80,62,-31,-1,1011.26,78.7,0
"2019-07-22 06:40:00+00",0.8,1.8,,79.9,-16,45,2,1011.34,78.7,0
"2019-07-22 06:45:00+00",0.0,0.0,,79.7,-10,23,13,1011.24,78.7,0
"2019-07-22 06:50:00+00",0.0,0.0,,79.7,16,58,-12,1011.12,78.7,0
"2019-07-22 06:55:00+00",0.0,0.0,,79.6,22,-49,-5,1010.92,78.8,0
"2019-07-22 07:00:00+00",0.0,0.0,,79.6,40,-19,-9,1010.9,78.7,0
"2019-07-22 07:05:00+00",0.0,0.0,,79.6,27,72,2,1010.86,78.6,0
"2019-07-22 07:10:00+00",0.0,0.0,,79.5,72,11,-2,1010.76,78.5,0
"2019-07-22 07:15:00+00",0.0,0.0,,79.4,80,-51,-3,1010.85,78.3,0
"2019-07-22 07:20:00+00",2.3,2.3,,79.3,98,9,-1,1010.91,78.2,0
"2019-07-22 07:25:00+00",3.7,3.7,,79.1,153,38,3,1010.8,78,0
"2019-07-22 07:30:00+00",4.3,4.3,,79,176,68,2,1010.81,77.8,0
"2019-07-22 07:35:00+00",5.5,5.5,,78.8,234,50,13,1010.67,77.6,0
"2019-07-22 07:40:00+00",7.8,8.8,,78.6,334,72,19,1010.54,77.4,0
"2019-07-22 07:45:00+00",6.6,7.6,,78,289,16,13,1010.44,77.2,0
"2019-07-22 07:50:00+00",7.1,8.1,,77.6,308,25,12,1010.4,77.1,0
"2019-07-22 07:55:00+00",5.6,6.6,,77.5,240,25,13,1010.32,77,0
"2019-07-22 08:00:00+00",3.2,4.2,,77.6,139,8,8,1010.22,76.9,0
"2019-07-22 08:05:00+00",3.7,4.7,,77.7,156,-3,2,1010.25,76.8,0
"2019-07-22 08:10:00+00",3.4,4.4,,77.8,145,8,7,1010.16,76.7,0
"2019-07-22 08:15:00+00",5.0,6.0,,77.3,213,2,8,1010.14,76.5,0
"2019-07-22 08:20:00+00",4.0,4.0,,77.2,169,-8,3,1010.04,76.3,0
"2019-07-22 08:25:00+00",4.4,4.4,,76.7,186,-37,11,1009.97,76.1,0
"2019-07-22 08:30:00+00",5.1,6.1,,76.5,174,-128,5,1010.02,75.9,0
"2019-07-22 08:35:00+00",5.6,6.6,,76.2,228,-65,0,1010.05,75.7,0
"2019-07-22 08:40:00+00",4.8,4.8,,76.1,190,-77,5,1010.1,75.5,0
"2019-07-22 08:45:00+00",3.6,4.6,,76.2,122,-88,0,1010.01,75.4,0
"2019-07-22 08:50:00+00",4.8,5.8,,76.3,201,-55,0,1010.06,75.3,0
"2019-07-22 08:55:00+00",7.5,7.5,,76.3,320,-74,11,1010.05,75.2,0
"2019-07-22 09:00:00+00",8.3,9.3,,76.5,351,-95,0,1010.02,75.1,0
"2019-07-22 09:05:00+00",6.9,7.9,,76.5,295,-56,8,1010.05,75.1,0
"2019-07-22 09:10:00+00",8.7,9.7,,76.3,377,-46,14,1010.05,75,0
"2019-07-22 09:15:00+00",7.6,8.6,,76.3,318,-107,-2,1009.93,74.9,0
"2019-07-22 09:20:00+00",6.8,7.8,,76.2,292,-51,9,1010.03,74.9,0
"2019-07-22 09:25:00+00",6.2,7.2,,76.2,274,-8,13,1010.12,75,0
"2019-07-22 09:30:00+00",4.3,5.3,,76.2,168,-59,7,1010.1,75,0
"2019-07-22 09:35:00+00",4.0,5.0,,75.9,166,11,7,1010.32,75,0
"2019-07-22 09:40:00+00",3.5,4.5,,76,141,-32,7,1010.3,75,0
"2019-07-22 09:45:00+00",3.4,4.4,,76.2,144,18,8,1010.32,75,0
"2019-07-22 09:50:00+00",3.8,3.8,,76.3,151,-57,8,1010.24,74.9,0
"2019-07-22 09:55:00+00",2.4,2.4,,76,100,-2,4,1010.31,74.9,0
"2019-07-22 10:00:00+00",3.5,3.5,,76,131,-60,1,1010.33,75,0
"2019-07-22 10:05:00+00",3.3,4.3,,76,129,-55,3,1010.4,75,0
"2019-07-22 10:10:00+00",1.6,1.6,,76,68,13,-2,1010.4,75,0
"2019-07-22 10:15:00+00",1.7,1.7,,76.2,71,-28,3,1010.43,75.1,0
"2019-07-22 10:20:00+00",1.9,2.9,,76.6,83,2,4,1010.43,75.2,0
"2019-07-22 10:25:00+00",0.0,0.0,,77,26,6,2,1010.48,75.4,0
"2019-07-22 10:30:00+00",0.0,0.0,,77.2,-32,-19,6,1010.49,75.7,0.4
"2019-07-22 10:35:00+00",0.0,0.0,,77.3,23,-62,1,1010.42,76,4.9
"2019-07-22 10:40:00+00",4.4,4.4,,77.7,137,-127,0,1010.41,76.4,12.1
"2019-07-22 10:45:00+00",3.3,4.3,,77.9,102,-97,3,1010.38,76.9,20.4
"2019-07-22 10:50:00+00",1.6,1.6,,78.3,49,-38,10,1010.35,77.6,29.3
"2019-07-22 10:55:00+00",0.0,0.0,,78.7,13,-33,8,1010.48,78.4,35
"2019-07-22 11:00:00+00",0.0,0.0,,79,46,-18,5,1010.45,79.1,46.8
"2019-07-22 11:05:00+00",0.0,0.0,,79.7,-17,-7,0,1010.48,79.9,55.1
"2019-07-22 11:10:00+00",0.0,0.0,,80.2,77,-74,6,1010.47,80.7,62.8
"2019-07-22 11:15:00+00",0.0,0.0,,80.1,68,-58,1,1010.38,81.3,74.9
"2019-07-22 11:20:00+00",0.0,0.0,,80.5,38,-9,-7,1010.52,82,80.2
"2019-07-22 11:25:00+00",0.0,0.0,,81.1,-1,36,-5,1010.42,82.9,96.2
"2019-07-22 11:30:00+00",0.0,0.0,,81.6,72,-28,-6,1010.44,83.8,102.8
"2019-07-22 11:35:00+00",0.0,0.0,,81.9,36,-30,5,1010.42,84.1,113.9
"2019-07-22 11:40:00+00",0.0,0.0,,82.5,22,-26,3,1010.47,84.7,125.7
"2019-07-22 11:45:00+00",0.0,0.0,,82.9,-1,0,25,1010.5,85.2,132.8
"2019-07-22 11:50:00+00",0.0,0.0,,83.2,-35,59,3,1010.54,86,142.2
"2019-07-22 11:55:00+00",3.6,4.6,,82.3,-128,83,51,1010.72,86.4,151
"2019-07-22 12:00:00+00",2.3,3.3,,81.9,-78,47,24,1010.7,86.6,159.9
"2019-07-22 12:05:00+00",4.2,5.2,,81.3,-174,55,14,1010.72,86.9,169.4
"2019-07-22 12:10:00+00",3.3,4.3,,81.2,-139,15,11,1010.69,87.2,177.2
"2019-07-22 12:15:00+00",2.9,3.9,,81.2,-113,47,4,1010.76,87.4,185.9
"2019-07-22 12:20:00+00",4.1,5.1,,81.2,-174,49,33,1010.61,87.6,196.1
"2019-07-22 12:25:00+00",3.6,4.6,,81.3,-149,48,41,1010.64,87.9,204.3
"2019-07-22 12:30:00+00",2.2,3.2,,81.5,-71,47,20,1010.54,88.2,210.4
"2019-07-22 12:35:00+00",1.7,2.7,,81.7,-79,-2,10,1010.57,88.5,211.7
"2019-07-22 12:40:00+00",1.7,2.7,,81.9,-81,11,5,1010.67,88.6,226.7
"2019-07-22 12:45:00+00",0.8,1.8,,82.1,-23,60,-12,1010.61,89,234
"2019-07-22 12:50:00+00",0.0,0.0,,83,9,-32,44,1010.54,88.9,236.9
"2019-07-22 12:55:00+00",0.0,0.0,,83.5,-66,9,-13,1010.52,89.3,236.8
"2019-07-22 13:00:00+00",0.0,0.0,,83.3,-93,30,-6,1010.41,89.6,258.7
"2019-07-22 13:05:00+00",0.0,0.0,,83.7,-19,-11,30,1010.35,90.1,265.4
"2019-07-22 13:10:00+00",0.0,0.0,,84.6,29,-13,-1,1010.37,90.2,267.7
"2019-07-22 13:15:00+00",0.0,0.0,,84.6,-72,39,46,1010.26,90.7,282.2
"2019-07-22 13:20:00+00",0.0,0.0,,84.7,10,10,10,1010.35,91.3,277.2
"2019-07-22 13:25:00+00",0.0,0.0,,85.3,88,-5,25,1010.32,91.3,285
"2019-07-22 13:30:00+00",2.1,3.1,,84.7,-80,-138,41,1010.22,88.9,303
"2019-07-22 13:35:00+00",4.5,6.5,,84.3,227,-110,17,1010.31,87.9,317.3
"2019-07-22 13:40:00+00",6.8,8.8,,83.8,253,-183,7,1010.3,87.4,316.5
"2019-07-22 13:45:00+00",3.1,6.1,,83.7,131,-85,24,1010.25,87,328.2
"2019-07-22 13:50:00+00",5.4,6.4,,83.7,226,-119,0,1010.28,86.9,335.4
"2019-07-22 13:55:00+00",5.6,6.6,,83.4,225,-110,14,1010.35,86.9,342.8
"2019-07-22 14:00:00+00",5.5,7.5,,83.4,173,-171,-2,1010.38,87,354.6
"2019-07-22 14:05:00+00",5.2,6.2,,83.1,237,-21,30,1010.36,87,359.6
"2019-07-22 14:10:00+00",3.3,5.3,,83.2,113,-105,3,1010.29,87.4,370.1
"2019-07-22 14:15:00+00",6.3,7.3,,83.6,0,-268,-26,1010.28,86.9,382.6
"2019-07-22 14:20:00+00",6.0,7.0,,83.6,93,-253,16,1010.25,86.2,395.4
"2019-07-22 14:25:00+00",6.2,8.2,,83.3,123,-242,-13,1010.1,85.9,396.4
"2019-07-22 14:30:00+00",7.7,9.7,,82.7,94,-321,-21,1010.16,85.6,403.1
"2019-07-22 14:35:00+00",7.5,10.5,,82.8,51,-320,-1,1010.15,85,414.4
"2019-07-22 14:40:00+00",7.9,8.9,,82.2,168,-302,-4,1010.13,84.5,421.2
"2019-07-22 14:45:00+00",7.8,11.8,,81.7,149,-305,-6,1010.09,84,420.8
"2019-07-22 14:50:00+00",8.4,10.4,,81.5,102,-341,3,1010.14,83.8,424.9
"2019-07-22 14:55:00+00",9.1,12.1,,81.1,189,-342,-6,1010.05,83.4,429.1
"2019-07-22 15:00:00+00",9.3,10.3,,81,133,-382,-21,1010.07,83.2,432.5
"2019-07-22 15:05:00+00",8.7,9.7,,81.1,85,-366,-26,1010.03,83.3,433.5
"2019-07-22 15:10:00+00",8.3,10.3,,81.1,112,-333,-10,1009.97,83.6,439.5
"2019-07-22 15:15:00+00",9.1,10.1,,81.2,116,-368,-6,1009.92,83.6,441.8
"2019-07-22 15:20:00+00",9.5,10.5,,81.1,104,-388,-11,1009.86,83.6,448
"2019-07-22 15:25:00+00",8.6,9.6,,81.1,104,-343,-3,1009.81,83.4,448.8
"2019-07-22 15:30:00+00",7.7,9.7,,80.8,107,-301,5,1009.77,83.4,449.7
"2019-07-22 15:35:00+00",7.0,9.0,,81.6,71,-279,16,1009.67,84,452.2
"2019-07-22 15:40:00+00",7.3,9.3,,82.9,44,-309,-12,1009.68,84.9,455.8
"2019-07-22 15:45:00+00",8.9,12.9,,83.2,57,-376,-7,1009.58,85.3,458.5
"2019-07-22 15:50:00+00",9.1,12.1,,83.6,10,-381,-12,1009.52,85.2,463.7
"2019-07-22 15:55:00+00",8.5,10.5,,83.9,-20,-361,-8,1009.6,85.6,468.2
"2019-07-22 16:00:00+00",9.0,13.0,,83.9,-15,-358,21,1009.58,85.5,471.7
"2019-07-22 16:05:00+00",13.6,16.6,,83.3,57,-580,-18,1009.5,85.1,477.2
"2019-07-22 16:10:00+00",11.9,14.9,,83.2,53,-506,-36,1009.58,84.8,479.9
"2019-07-22 16:15:00+00",12.1,17.1,,84.5,-135,-498,4,1009.55,85.8,484
"2019-07-22 16:20:00+00",11.9,14.9,,85.3,-134,-494,1,1009.37,86.7,488.7
"2019-07-22 16:25:00+00",14.3,17.3,,85.2,-136,-591,-30,1009.35,86.9,490.9
"2019-07-22 16:30:00+00",9.5,13.5,,85.5,-51,-397,5,1009.31,87.2,492.6
"2019-07-22 16:35:00+00",13.3,17.3,,84.9,-125,-559,-27,1009.15,86.5,493.8
"2019-07-22 16:40:00+00",14.3,16.3,,85.8,-279,-553,-16,1009.04,87.4,497.1
"2019-07-22 16:45:00+00",12.9,16.9,,85.9,-186,-527,-12,1009.04,87.7,501.1
"2019-07-22 16:50:00+00",14.5,17.5,,86.2,-252,-573,-6,1009.04,88,501.7
"2019-07-22 16:55:00+00",14.2,17.2,,86.3,-186,-591,-9,1008.97,88.2,485.1
"2019-07-22 17:00:00+00",13.2,19.2,,86.4,-146,-536,-2,1008.97,88.2,502.4
"2019-07-22 17:05:00+00",15.0,18.0,,86.2,-150,-634,-1,1008.93,88.2,503.2
"2019-07-22 17:10:00+00",17.8,23.8,,85.7,-165,-749,-24,1008.85,87.7,503.7
"2019-07-22 17:15:00+00",13.1,16.1,,85.5,-154,-534,-7,1008.94,87.4,504.9
"2019-07-22 17:20:00+00",18.0,21.0,,85.5,-240,-741,-39,1008.82,87.2,506.5
"2019-07-22 17:25:00+00",11.1,16.1,,85.9,-139,-468,27,1008.85,87.7,503
"2019-07-22 17:30:00+00",17.5,21.5,,85.2,-307,-691,-21,1008.81,87.1,501.6
"2019-07-22 17:35:00+00",17.1,19.1,,85.1,-278,-684,-27,1008.69,87.1,499.9
"2019-07-22 17:40:00+00",15.6,19.6,,85.6,-246,-632,-11,1008.7,87.3,499.9
"2019-07-22 17:45:00+00",13.4,17.4,,86.2,-139,-553,5,1008.53,87.7,501
"2019-07-22 17:50:00+00",15.3,22.3,,85.7,-149,-635,-36,1008.46,87.3,496.8
"2019-07-22 17:55:00+00",15.7,20.7,,85.3,-153,-650,-19,1008.43,87.1,497.4
"2019-07-22 18:00:00+00",13.6,18.6,,85.1,-152,-584,6,1008.42,86.8,491.2
"2019-07-22 18:05:00+00",14.5,18.5,,85.1,-189,-591,4,1008.39,87,488.2
"2019-07-22 18:10:00+00",12.2,16.2,,85.4,-114,-506,14,1008.35,87.2,486.2
"2019-07-22 18:15:00+00",13.2,18.2,,85.7,-145,-529,6,1008.33,87.5,481.4
"2019-07-22 18:20:00+00",11.7,15.7,,85.3,-141,-475,6,1008.24,87.3,479.3
"2019-07-22 18:25:00+00",14.2,19.2,,85.3,-176,-597,-3,1008.24,87.2,474.8
"2019-07-22 18:30:00+00",12.9,17.9,,85.5,-121,-534,-12,1008.25,87.2,473.6
"2019-07-22 18:35:00+00",13.7,18.7,,85.8,-199,-557,-8,1008.17,87.5,465.6
"2019-07-22 18:40:00+00",14.8,17.8,,85.6,-194,-607,3,1008.16,87.5,465
"2019-07-22 18:45:00+00",13.2,16.2,,85.7,-187,-521,11,1008.07,87.3,460.1
"2019-07-22 18:50:00+00",14.0,20.0,,85.9,-163,-580,3,1007.99,87.6,449.9
"2019-07-22 18:55:00+00",16.0,19.0,,86.2,-181,-663,-22,1007.87,87.7,452.6
"2019-07-22 19:00:00+00",13.9,16.9,,86.1,-122,-578,-6,1007.69,87.8,448.5
"2019-07-22 19:05:00+00",15.7,21.7,,86.4,-236,-623,16,1007.56,87.8,440.2
"2019-07-22 19:10:00+00",14.2,20.2,,86.2,-176,-591,1,1007.5,87.7,435
"2019-07-22 19:15:00+00",17.5,22.5,,85.8,-198,-724,-9,1007.42,87.5,434.4
"2019-07-22 19:20:00+00",19.1,23.1,,85.6,-186,-794,-2,1007.35,87.1,426
"2019-07-22 19:25:00+00",17.9,23.9,,85.7,-279,-724,4,1007.3,87.1,419.4
"2019-07-22 19:30:00+00",20.3,23.3,,85.6,-366,-816,1,1007.25,87.1,410.5
"2019-07-22 19:35:00+00",18.0,22.0,,85.7,-172,-749,-6,1007.1,87.3,402
"2019-07-22 19:40:00+00",17.0,23.0,,85.7,-250,-689,9,1007.09,87.1,394.3
"2019-07-22 19:45:00+00",20.5,24.5,,85.5,-311,-819,6,1007,87,385.6
"2019-07-22 19:50:00+00",20.4,29.4,,85.6,-306,-827,4,1006.98,86.9,377.1
"2019-07-22 19:55:00+00",22.0,26.0,,85.6,-386,-874,-18,1006.84,87,369.4
"2019-07-22 20:00:00+00",26.2,30.2,,85.6,-596,-993,-8,1006.78,87.1,357.5
"2019-07-22 20:05:00+00",23.1,29.1,,85.6,-540,-881,0,1006.76,87.1,346.8
"2019-07-22 20:10:00+00",24.7,28.7,,85.6,-534,-952,0,1006.67,87,338.5
"2019-07-22 20:15:00+00",25.7,28.7,,85.6,-560,-977,-14,1006.6,87.1,319.4
"2019-07-22 20:20:00+00",23.4,28.4,,85.7,-447,-923,3,1006.5,87,320.1
"2019-07-22 20:25:00+00",22.6,27.6,,85.8,-435,-882,-12,1006.47,86.9,309.7
"2019-07-22 20:30:00+00",24.5,26.5,,85.6,-510,-946,-9,1006.42,86.9,301
"2019-07-22 20:35:00+00",21.3,27.3,,85.7,-477,-818,13,1006.47,86.9,290.1
"2019-07-22 20:40:00+00",20.9,24.9,,85.7,-524,-785,4,1006.56,87.1,280.1
"2019-07-22 20:45:00+00",21.5,25.5,,85.6,-491,-820,1,1006.44,87,273.9
"2019-07-22 20:50:00+00",21.1,25.1,,86,-503,-798,6,1006.4,87.2,250.6
"2019-07-22 20:55:00+00",21.5,26.5,,86.2,-428,-831,-4,1006.22,87.3,36.2
"2019-07-22 21:00:00+00",20.7,23.7,,86.4,-475,-792,9,1006.16,87.5,19.3
"2019-07-22 21:05:00+00",21.1,24.1,,86.4,-463,-801,-14,1006.08,87.5,29.4
"2019-07-22 21:10:00+00",19.6,23.6,,86.6,-409,-760,0,1006,87.6,228.8
"2019-07-22 21:15:00+00",21.4,25.4,,86.4,-428,-831,-18,1005.93,87.5,222.2
"2019-07-22 21:20:00+00",20.4,23.4,,86.4,-499,-767,17,1005.97,87.6,215.2
"2019-07-22 21:25:00+00",18.4,21.4,,86.5,-406,-702,0,1005.8,87.6,208.5
"2019-07-22 21:30:00+00",21.8,24.8,,86.4,-574,-800,5,1005.8,87.7,204.6
"2019-07-22 21:35:00+00",20.8,24.8,,86.5,-479,-792,-4,1005.9,87.6,197.9
"2019-07-22 21:40:00+00",22.9,28.9,,86.5,-509,-877,12,1006,87.5,190.1
"2019-07-22 21:45:00+00",21.4,24.4,,86.4,-519,-814,24,1006.11,87.4,183.4
"2019-07-22 21:50:00+00",25.4,28.4,,86.1,-740,-862,-2,1006.18,87.3,171.6
"2019-07-22 21:55:00+00",22.9,25.9,,85.8,-707,-779,27,1006.29,87.1,159.4
"2019-07-22 22:00:00+00",20.6,23.6,,85.9,-598,-719,8,1006.24,87.1,157.5
"2019-07-22 22:05:00+00",20.1,25.1,,85.7,-614,-674,20,1006.26,87.1,5.7
"2019-07-22 22:10:00+00",19.3,26.3,,84.9,-620,-596,29,1006.27,86.1,0
"2019-07-22 22:15:00+00",17.8,20.8,,84.9,-474,-652,22,1006.16,85.3,0
"2019-07-22 22:20:00+00",17.1,21.1,,84.8,-489,-620,8,1006.08,85,0
"2019-07-22 22:25:00+00",19.0,22.0,,84.8,-467,-712,3,1005.96,84.7,0
"2019-07-22 22:30:00+00",18.0,22.0,,84.7,-494,-673,23,1005.97,84.6,0
"2019-07-22 22:35:00+00",19.3,23.3,,84.5,-551,-689,-14,1006.03,84.4,0
"2019-07-22 22:40:00+00",17.3,19.3,,84.5,-579,-481,22,1006.25,84.4,0
"2019-07-22 22:45:00+00",19.9,22.9,,81.7,-870,218,56,1006.79,83.2,0
"2019-07-22 22:50:00+00",11.2,13.2,,80.8,-475,167,53,1007.21,82.1,0
"2019-07-22 22:55:00+00",25.6,29.6,,80.2,-895,744,71,1007.52,81,0
"2019-07-22 23:00:00+00",29.6,38.6,,79.5,-1130,671,80,1007.39,80.1,0
"2019-07-22 23:05:00+00",23.7,25.7,,75.8,-791,711,57,1007.27,78,0
"2019-07-22 23:10:00+00",12.0,14.0,,74.5,-486,228,19,1007.25,76.5,0
"2019-07-22 23:15:00+00",8.8,9.8,,74.5,-355,149,21,1007.28,75.9,0
"2019-07-22 23:20:00+00",12.8,14.8,,75.1,-554,176,55,1007.57,75.9,0
"2019-07-22 23:25:00+00",14.5,16.5,,74.9,-593,265,51,1007.63,75.7,0
"2019-07-22 23:30:00+00",11.2,12.2,,74.9,-460,210,43,1007.56,75.2,0
"2019-07-22 23:35:00+00",8.7,10.7,,76.2,-375,113,8,1007.67,75.1,0
"2019-07-22 23:40:00+00",11.7,12.7,,76.1,-458,-273,27,1008.29,75.3,0
"2019-07-22 23:45:00+00",37.3,54.3,,75.2,-487,156,880,1009.47,75.1,0
"2019-07-22 23:50:00+00",43.6,48.6,,70.7,-248,86,777,1008.97,73,0
"2019-07-22 23:55:00+00",21.3,27.3,,72.8,-915,-142,-81,1007.1,71.8,0
